When you browse on this site, cookies collect data to enhance your experience and personalize the content and advertising you see.
Visit our Privacy Policy to learn more. By continuing to use the site, you agree to this use of cookies and data.
  • In United Kingdom
  • List of Countries
  • For 7 days
  • Water Temperature
  • Weather Map
  • Weather Widgets
  • user-avatar
    Login

    Hourly Weather Djelfa

    Today, 4 June, Thursday

    Time Temperature Precipitation Wind Pressure Humidity
    00:00 +23°C° 0 mm 2 mps 662 mmHg 38%
    01:00 +23°C° 0 mm 1 mps 661 mmHg 39%
    02:00 +22°C° 0 mm 1 mps 661 mmHg 40%
    03:00 +22°C° 0 mm 1 mps 661 mmHg 40%
    04:00 +21°C° 0 mm 2 mps 661 mmHg 38%
    05:00 +22°C° 0 mm 3 mps 661 mmHg 36%
    06:00 +22°C° 0 mm 4 mps 662 mmHg 34%
    07:00 +23°C° 0 mm 4 mps 662 mmHg 31%
    08:00 +25°C° 0 mm 5 mps 662 mmHg 27%
    09:00 +27°C° 0 mm 6 mps 663 mmHg 24%
    10:00 +28°C° 0 mm 6 mps 663 mmHg 22%
    11:00 +28°C° 0 mm 6 mps 663 mmHg 20%
    12:00 +29°C° 0 mm 5 mps 663 mmHg 19%
    13:00 +29°C° 0 mm 6 mps 662 mmHg 19%
    14:00 +30°C° 0 mm 7 mps 662 mmHg 19%
    15:00 +31°C° 0 mm 8 mps 662 mmHg 19%
    16:00 +29°C° 0 mm 8 mps 662 mmHg 21%
    17:00 +28°C° 0 mm 9 mps 662 mmHg 24%
    18:00 +27°C° 0 mm 9 mps 661 mmHg 27%
    19:00 +24°C° 0 mm 10 mps 662 mmHg 31%
    20:00 +22°C° 0 mm 11 mps 662 mmHg 36%
    21:00 +19°C° 0 mm 12 mps 662 mmHg 41%
    22:00 +18°C° 0 mm 12 mps 662 mmHg 48%
    23:00 +17°C° 0 mm 11 mps 662 mmHg 54%

    Tomorrow, 5 June, Friday

    Time Temperature Precipitation Wind Pressure Humidity
    00:00 +17°C° 0 mm 10 mps 662 mmHg 61%
    01:00 +16°C° 0 mm 10 mps 662 mmHg 65%
    02:00 +16°C° 0 mm 10 mps 661 mmHg 69%
    03:00 +14°C° 0 mm 10 mps 661 mmHg 73%
    04:00 +14°C° 0 mm 10 mps 661 mmHg 74%
    05:00 +14°C° 0 mm 11 mps 661 mmHg 76%
    06:00 +14°C° 0 mm 11 mps 662 mmHg 77%
    07:00 +16°C° 0 mm 10 mps 662 mmHg 69%
    08:00 +18°C° 0 mm 10 mps 663 mmHg 61%
    09:00 +19°C° 0 mm 10 mps 663 mmHg 53%
    10:00 +21°C° 0 mm 10 mps 664 mmHg 47%
    11:00 +23°C° 0 mm 9 mps 664 mmHg 41%
    12:00 +24°C° 0 mm 9 mps 664 mmHg 36%
    13:00 +24°C° 0 mm 8 mps 664 mmHg 34%
    14:00 +26°C° 0 mm 8 mps 664 mmHg 32%
    15:00 +27°C° 0 mm 7 mps 664 mmHg 30%
    16:00 +26°C° 0 mm 7 mps 664 mmHg 31%
    17:00 +26°C° 0 mm 6 mps 664 mmHg 32%
    18:00 +24°C° 0 mm 6 mps 664 mmHg 34%
    19:00 +23°C° 0 mm 5 mps 665 mmHg 37%
    20:00 +22°C° 0 mm 5 mps 665 mmHg 41%
    21:00 +21°C° 0 mm 4 mps 665 mmHg 45%
    22:00 +20°C° 0 mm 3 mps 665 mmHg 48%
    23:00 +20°C° 0 mm 3 mps 665 mmHg 50%

    Day after tomorrow, 6 June, Saturday

    Time Temperature Precipitation Wind Pressure Humidity
    00:00 +19°C° 0 mm 3 mps 665 mmHg 52%
    01:00 +18°C° 0 mm 2 mps 665 mmHg 52%
    02:00 +18°C° 0 mm 2 mps 664 mmHg 53%
    03:00 +18°C° 0 mm 2 mps 664 mmHg 53%
    04:00 +18°C° 0 mm 2 mps 664 mmHg 49%
    05:00 +19°C° 0 mm 2 mps 665 mmHg 45%
    06:00 +21°C° 0 mm 1 mps 665 mmHg 41%
    07:00 +23°C° 0 mm 2 mps 666 mmHg 36%
    08:00 +24°C° 0 mm 3 mps 666 mmHg 31%
    09:00 +26°C° 0 mm 4 mps 667 mmHg 27%
    10:00 +28°C° 0 mm 4 mps 667 mmHg 24%
    11:00 +29°C° 0 mm 5 mps 667 mmHg 21%
    12:00 +32°C° 0 mm 6 mps 667 mmHg 18%
    13:00 +32°C° 0 mm 6 mps 666 mmHg 18%
    14:00 +32°C° 0 mm 7 mps 666 mmHg 18%
    15:00 +33°C° 0 mm 7 mps 666 mmHg 18%
    16:00 +32°C° 0 mm 6 mps 665 mmHg 19%
    17:00 +32°C° 0 mm 5 mps 665 mmHg 20%
    18:00 +30°C° 0 mm 3 mps 664 mmHg 20%
    19:00 +29°C° 0 mm 3 mps 664 mmHg 22%
    20:00 +29°C° 0 mm 3 mps 665 mmHg 24%
    21:00 +28°C° 0 mm 3 mps 665 mmHg 25%
    22:00 +26°C° 0 mm 3 mps 664 mmHg 28%
    23:00 +25°C° 0 mm 3 mps 664 mmHg 30%

    7 June, Sunday

    Time Temperature Precipitation Wind Pressure Humidity
    00:00 +23°C° 0 mm 4 mps 663 mmHg 33%
    01:00 +22°C° 0 mm 3 mps 663 mmHg 33%
    02:00 +22°C° 0 mm 3 mps 663 mmHg 34%
    03:00 +22°C° 0 mm 3 mps 662 mmHg 34%
    04:00 +22°C° 0 mm 4 mps 663 mmHg 36%
    05:00 +22°C° 0 mm 5 mps 663 mmHg 37%
    06:00 +22°C° 0 mm 6 mps 663 mmHg 38%
    07:00 +23°C° 0 mm 6 mps 663 mmHg 37%
    08:00 +24°C° 0 mm 6 mps 664 mmHg 35%
    09:00 +24°C° 0 mm 6 mps 664 mmHg 34%
    10:00 +27°C° 0 mm 5 mps 664 mmHg 32%
    11:00 +28°C° 0 mm 5 mps 664 mmHg 29%
    12:00 +29°C° 0 mm 4 mps 664 mmHg 27%
    13:00 +30°C° 0 mm 5 mps 664 mmHg 26%
    14:00 +30°C° 0 mm 5 mps 664 mmHg 25%
    15:00 +32°C° 0 mm 6 mps 663 mmHg 23%
    16:00 +30°C° 0 mm 6 mps 663 mmHg 25%
    17:00 +29°C° 0 mm 7 mps 663 mmHg 26%
    18:00 +29°C° 0 mm 7 mps 663 mmHg 28%
    19:00 +27°C° 0 mm 7 mps 663 mmHg 34%
    20:00 +26°C° 0 mm 8 mps 664 mmHg 41%
    21:00 +23°C° 0 mm 8 mps 664 mmHg 47%
    22:00 +22°C° 0 mm 7 mps 664 mmHg 50%
    23:00 +21°C° 0 mm 7 mps 663 mmHg 53%

    8 June, Monday

    Time Temperature Precipitation Wind Pressure Humidity
    00:00 +20°C° 0 mm 6 mps 663 mmHg 55%
    01:00 +20°C° 0 mm 6 mps 663 mmHg 55%
    02:00 +19°C° 0 mm 6 mps 663 mmHg 55%
    03:00 +19°C° 0 mm 5 mps 662 mmHg 55%
    04:00 +19°C° 0 mm 6 mps 663 mmHg 53%
    05:00 +19°C° 0 mm 6 mps 663 mmHg 51%
    06:00 +17°C° 0 mm 7 mps 663 mmHg 48%
    07:00 +20°C° 0 mm 7 mps 663 mmHg 43%
    08:00 +21°C° 0 mm 7 mps 664 mmHg 39%
    09:00 +23°C° 0 mm 7 mps 664 mmHg 34%
    10:00 +24°C° 0 mm 6 mps 664 mmHg 31%
    11:00 +26°C° 0 mm 6 mps 664 mmHg 29%
    12:00 +27°C° 0 mm 5 mps 664 mmHg 26%
    13:00 +27°C° 0 mm 5 mps 664 mmHg 26%
    14:00 +27°C° 0 mm 5 mps 663 mmHg 27%
    15:00 +28°C° 0 mm 5 mps 663 mmHg 27%
    16:00 +27°C° 0 mm 6 mps 663 mmHg 29%
    17:00 +26°C° 0 mm 7 mps 663 mmHg 31%
    18:00 +24°C° 0 mm 7 mps 663 mmHg 34%
    19:00 +23°C° 0 mm 8 mps 663 mmHg 40%
    20:00 +22°C° 0 mm 9 mps 664 mmHg 47%
    21:00 +21°C° 0 mm 10 mps 664 mmHg 54%
    22:00 +19°C° 0 mm 9 mps 664 mmHg 57%
    23:00 +18°C° 0 mm 8 mps 664 mmHg 60%

    9 June, Tuesday

    Time Temperature Precipitation Wind Pressure Humidity
    00:00 +18°C° 0 mm 7 mps 664 mmHg 63%
    01:00 +17°C° 0 mm 6 mps 664 mmHg 64%
    02:00 +17°C° 0 mm 5 mps 663 mmHg 65%
    03:00 +17°C° 0 mm 4 mps 663 mmHg 66%
    04:00 +18°C° 0 mm 3 mps 664 mmHg 63%
    05:00 +18°C° 0 mm 2 mps 664 mmHg 60%
    06:00 +19°C° 0 mm 1 mps 664 mmHg 57%
    07:00 +20°C° 0 mm 1 mps 665 mmHg 49%
    08:00 +22°C° 0 mm 1 mps 665 mmHg 41%
    09:00 +23°C° 0 mm 1 mps 665 mmHg 34%
    10:00 +25°C° 0 mm 1 mps 665 mmHg 30%
    11:00 +26°C° 0 mm 1 mps 666 mmHg 27%
    12:00 +27°C° 0 mm 2 mps 666 mmHg 23%
    13:00 +28°C° 0 mm 2 mps 666 mmHg 23%
    14:00 +29°C° 0 mm 2 mps 666 mmHg 22%
    15:00 +29°C° 0 mm 3 mps 665 mmHg 22%
    16:00 +29°C° 0.1 mm 3 mps 665 mmHg 23%
    17:00 +28°C° 0.1 mm 3 mps 665 mmHg 24%
    18:00 +28°C° 0.1 mm 3 mps 665 mmHg 26%
    19:00 +26°C° 0.2 mm 4 mps 665 mmHg 30%
    20:00 +25°C° 0.2 mm 4 mps 665 mmHg 34%
    21:00 +23°C° 0.2 mm 4 mps 665 mmHg 38%
    22:00 +23°C° 0.1 mm 5 mps 665 mmHg 39%
    23:00 +22°C° 0.1 mm 5 mps 665 mmHg 40%
    Show more